Time,TemperatureF,DewpointF,PressureIn,WindDirection,WindDirectionDegrees,WindSpeedMPH,WindSpeedGustMPH,Humidity,HourlyPrecipIn,Conditions,Clouds,dailyrainin,SoftwareType,DateUTC
2013-05-31 00:00:00,55.8,44.6,28.38,WSW,240,0.0,9.6,96,0.00,,,-99.99,HOBO +U30 +Weather +,2013-05-31 07:00:00,
2013-05-31 00:15:00,55.7,44.4,28.38,WSW,240,0.0,19.0,96,0.00,,,-99.99,HOBO +U30 +Weather +,2013-05-31 07:15:00,
2013-05-31 00:30:00,55.7,44.3,28.38,WSW,240,0.0,19.0,96,0.00,,,-99.99,HOBO +U30 +Weather +,2013-05-31 07:30:00,
2013-05-31 00:45:00,55.6,44.2,28.38,WSW,240,0.0,19.5,96,0.05,,,-99.99,HOBO +U30 +Weather +,2013-05-31 07:45:00,
2013-05-31 01:00:00,55.5,44.0,28.38,WSW,240,0.0,19.5,96,0.00,,,-99.99,HOBO +U30 +Weather +,2013-05-31 08:00:00,
2013-05-31 01:15:00,55.4,44.2,28.38,WSW,240,0.0,19.9,96,0.00,,,-99.99,HOBO +U30 +Weather +,2013-05-31 08:15:00,
2013-05-31 01:30:00,55.4,44.2,28.38,WSW,240,0.0,19.9,96,0.00,,,-99.99,HOBO +U30 +Weather +,2013-05-31 08:30:00,
2013-05-31 01:45:00,55.3,44.5,28.38,WSW,240,0.4,19.9,96,0.00,,,-99.99,HOBO +U30 +Weather +,2013-05-31 08:45:00,
2013-05-31 02:00:00,55.3,44.3,28.39,WSW,240,0.0,20.4,96,0.00,,,-99.99,HOBO +U30 +Weather +,2013-05-31 09:00:00,
2013-05-31 02:15:00,55.2,44.3,28.39,WSW,240,0.0,0.0,97,0.00,,,-99.99,HOBO +U30 +Weather +,2013-05-31 09:15:00,
2013-05-31 02:30:00,55.1,44.3,28.39,WSW,240,0.0,0.0,96,0.00,,,-99.99,HOBO +U30 +Weather +,2013-05-31 09:30:00,
2013-05-31 02:45:00,55.0,44.5,28.39,WSW,240,0.0,0.0,96,0.00,,,-99.99,HOBO +U30 +Weather +,2013-05-31 09:45:00,
2013-05-31 03:00:00,55.0,44.4,28.39,WSW,240,0.9,2.5,97,0.05,,,-99.99,HOBO +U30 +Weather +,2013-05-31 10:00:00,
2013-05-31 03:15:00,55.0,44.5,28.39,SSW,209,1.6,3.4,97,0.00,,,-99.99,HOBO +U30 +Weather +,2013-05-31 10:15:00,
2013-05-31 03:30:00,54.9,44.5,28.39,SW,222,0.4,14.5,97,0.00,,,-99.99,HOBO +U30 +Weather +,2013-05-31 10:30:00,
2013-05-31 03:45:00,54.8,44.6,28.39,SW,223,0.0,20.4,97,0.00,,,-99.99,HOBO +U30 +Weather +,2013-05-31 10:45:00,
2013-05-31 04:00:00,54.7,44.6,28.39,SW,223,0.0,21.5,97,0.08,,,-99.99,HOBO +U30 +Weather +,2013-05-31 11:00:00,
2013-05-31 04:15:00,54.6,44.5,28.39,WSW,237,0.9,2.9,97,0.00,,,-99.99,HOBO +U30 +Weather +,2013-05-31 11:15:00,
2013-05-31 04:30:00,54.6,44.3,28.39,WSW,239,0.9,19.5,97,0.00,,,-99.99,HOBO +U30 +Weather +,2013-05-31 11:30:00,
2013-05-31 04:45:00,54.5,44.0,28.39,WSW,239,0.4,18.6,97,0.00,,,-99.99,HOBO +U30 +Weather +,2013-05-31 11:45:00,
2013-05-31 05:00:00,54.4,43.9,28.40,WSW,239,0.4,19.0,97,0.00,,,-99.99,HOBO +U30 +Weather +,2013-05-31 12:00:00,
2013-05-31 05:15:00,54.3,43.3,28.41,WSW,239,0.0,1.3,97,0.00,,,-99.99,HOBO +U30 +Weather +,2013-05-31 12:15:00,
2013-05-31 05:30:00,54.3,43.6,28.41,WSW,239,0.0,1.3,97,0.00,,,-99.99,HOBO +U30 +Weather +,2013-05-31 12:30:00,
2013-05-31 05:45:00,54.2,43.5,28.41,WSW,239,0.0,0.0,97,0.00,,,-99.99,HOBO +U30 +Weather +,2013-05-31 12:45:00,
2013-05-31 06:00:00,54.2,44.0,28.41,WSW,239,0.4,1.6,97,0.00,,,-99.99,HOBO +U30 +Weather +,2013-05-31 13:00:00,
2013-05-31 06:15:00,54.1,43.9,28.41,WSW,239,0.4,6.3,97,0.00,,,-99.99,HOBO +U30 +Weather +,2013-05-31 13:15:00,
2013-05-31 06:30:00,54.1,43.9,28.41,WSW,239,0.4,2.0,97,0.00,,,-99.99,HOBO +U30 +Weather +,2013-05-31 13:30:00,
2013-05-31 06:45:00,54.0,43.8,28.42,WSW,239,0.4,2.0,96,0.00,,,-99.99,HOBO +U30 +Weather +,2013-05-31 13:45:00,
2013-05-31 07:00:00,53.9,44.6,28.42,WSW,239,0.0,1.6,95,0.00,,,-99.99,HOBO +U30 +Weather +,2013-05-31 14:00:00,
2013-05-31 07:15:00,53.9,44.0,28.42,SW,220,0.9,2.9,91,0.00,,,-99.99,HOBO +U30 +Weather +,2013-05-31 14:15:00,
2013-05-31 07:30:00,53.9,44.7,28.43,ESE,114,1.3,26.6,91,0.00,,,-99.99,HOBO +U30 +Weather +,2013-05-31 14:30:00,
2013-05-31 07:45:00,53.8,45.3,28.43,South,180,1.6,21.3,90,0.00,,,-99.99,HOBO +U30 +Weather +,2013-05-31 14:45:00,
2013-05-31 08:00:00,53.8,46.1,28.43,SW,219,1.3,19.9,87,0.00,,,-99.99,HOBO +U30 +Weather +,2013-05-31 15:00:00,
2013-05-31 08:15:00,53.8,45.9,28.44,SSW,209,2.5,24.4,88,0.00,,,-99.99,HOBO +U30 +Weather +,2013-05-31 15:15:00,
2013-05-31 08:30:00,53.7,46.3,28.44,ESE,105,0.9,20.8,86,0.00,,,-99.99,HOBO +U30 +Weather +,2013-05-31 15:30:00,
2013-05-31 08:45:00,53.7,49.3,28.44,NE,42,1.6,3.4,86,0.00,,,-99.99,HOBO +U30 +Weather +,2013-05-31 15:45:00,
2013-05-31 09:00:00,53.7,46.7,28.44,NE,49,0.9,25.7,85,0.00,,,-99.99,HOBO +U30 +Weather +,2013-05-31 16:00:00,
2013-05-31 09:15:00,53.7,45.6,28.43,WSW,256,2.5,24.4,84,0.00,,,-99.99,HOBO +U30 +Weather +,2013-05-31 16:15:00,
2013-05-31 09:30:00,53.7,47.1,28.44,West,274,2.0,27.1,85,0.00,,,-99.99,HOBO +U30 +Weather +,2013-05-31 16:30:00,
2013-05-31 09:45:00,53.7,46.4,28.44,West,268,2.0,27.3,84,0.00,,,-99.99,HOBO +U30 +Weather +,2013-05-31 16:45:00,
2013-05-31 10:00:00,53.7,46.5,28.43,WSW,246,2.9,12.1,82,0.00,,,-99.99,HOBO +U30 +Weather +,2013-05-31 17:00:00,
2013-05-31 10:15:00,53.8,46.8,28.44,WSW,248,2.5,5.8,82,0.00,,,-99.99,HOBO +U30 +Weather +,2013-05-31 17:15:00,
2013-05-31 10:30:00,53.8,46.2,28.44,WNW,298,2.0,25.3,79,0.00,,,-99.99,HOBO +U30 +Weather +,2013-05-31 17:30:00,
2013-05-31 10:45:00,53.8,48.1,28.43,NW,305,0.9,4.3,78,0.00,,,-99.99,HOBO +U30 +Weather +,2013-05-31 17:45:00,
2013-05-31 11:00:00,53.8,47.7,28.43,WNW,289,2.0,21.9,80,0.00,,,-99.99,HOBO +U30 +Weather +,2013-05-31 18:00:00,
2013-05-31 11:15:00,53.9,46.8,28.43,WSW,258,2.5,26.2,79,0.00,,,-99.99,HOBO +U30 +Weather +,2013-05-31 18:15:00,
2013-05-31 11:30:00,53.9,46.4,28.43,WSW,254,2.5,16.6,77,0.00,,,-99.99,HOBO +U30 +Weather +,2013-05-31 18:30:00,
2013-05-31 11:45:00,53.9,46.4,28.43,West,279,2.0,22.8,75,0.00,,,-99.99,HOBO +U30 +Weather +,2013-05-31 18:45:00,
2013-05-31 12:00:00,54.0,45.6,28.44,West,270,3.4,24.4,73,0.00,,,-99.99,HOBO +U30 +Weather +,2013-05-31 19:00:00,
2013-05-31 12:15:00,54.1,43.8,28.44,West,274,3.4,7.2,67,0.00,,,-99.99,HOBO +U30 +Weather +,2013-05-31 19:15:00,
2013-05-31 12:30:00,54.1,46.4,28.44,West,278,2.9,17.9,69,0.00,,,-99.99,HOBO +U30 +Weather +,2013-05-31 19:30:00,
2013-05-31 12:45:00,54.2,46.4,28.43,West,277,3.8,30.0,69,0.00,,,-99.99,HOBO +U30 +Weather +,2013-05-31 19:45:00,
2013-05-31 13:00:00,54.2,45.4,28.43,West,265,4.5,26.2,65,0.00,,,-99.99,HOBO +U30 +Weather +,2013-05-31 20:00:00,
2013-05-31 13:15:00,54.3,45.0,28.43,West,274,4.3,19.0,65,0.00,,,-99.99,HOBO +U30 +Weather +,2013-05-31 20:15:00,
2013-05-31 13:30:00,54.4,44.9,28.43,West,274,4.3,7.8,61,0.00,,,-99.99,HOBO +U30 +Weather +,2013-05-31 20:30:00,
2013-05-31 13:45:00,54.5,46.0,28.42,SW,227,4.3,32.4,64,0.00,,,-99.99,HOBO +U30 +Weather +,2013-05-31 20:45:00,
2013-05-31 14:00:00,54.6,47.0,28.42,SW,226,2.9,7.4,62,0.00,,,-99.99,HOBO +U30 +Weather +,2013-05-31 21:00:00,
2013-05-31 14:15:00,54.7,46.0,28.41,WSW,254,4.9,19.0,58,0.00,,,-99.99,HOBO +U30 +Weather +,2013-05-31 21:15:00,
2013-05-31 14:30:00,54.8,46.7,28.42,SW,234,5.8,13.0,61,0.00,,,-99.99,HOBO +U30 +Weather +,2013-05-31 21:30:00,
2013-05-31 14:45:00,55.0,47.0,28.42,West,271,4.3,21.3,55,0.00,,,-99.99,HOBO +U30 +Weather +,2013-05-31 21:45:00,
2013-05-31 15:00:00,55.2,45.6,28.41,NW,305,2.5,30.0,57,0.00,,,-99.99,HOBO +U30 +Weather +,2013-05-31 22:00:00,
2013-05-31 15:15:00,55.4,46.8,28.41,West,275,3.8,27.1,55,0.00,,,-99.99,HOBO +U30 +Weather +,2013-05-31 22:15:00,
2013-05-31 15:30:00,55.7,45.7,28.41,West,263,4.9,19.5,57,0.00,,,-99.99,HOBO +U30 +Weather +,2013-05-31 22:30:00,
2013-05-31 15:45:00,55.9,47.4,28.41,West,281,4.5,32.4,56,0.00,,,-99.99,HOBO +U30 +Weather +,2013-05-31 22:45:00,
2013-05-31 16:00:00,56.2,47.1,28.41,WNW,284,4.5,27.7,53,0.00,,,-99.99,HOBO +U30 +Weather +,2013-05-31 23:00:00,
2013-05-31 16:15:00,56.4,46.2,28.40,West,275,3.8,8.7,58,0.00,,,-99.99,HOBO +U30 +Weather +,2013-05-31 23:15:00,
2013-05-31 16:30:00,56.7,47.8,28.40,WNW,298,3.4,29.1,54,0.00,,,-99.99,HOBO +U30 +Weather +,2013-05-31 23:30:00,
2013-05-31 16:45:00,56.9,48.2,28.40,NW,310,3.4,9.6,56,0.00,,,-99.99,HOBO +U30 +Weather +,2013-05-31 23:45:00,
2013-05-31 17:00:00,57.2,47.1,28.40,NW,310,3.8,28.6,60,0.00,,,-99.99,HOBO +U30 +Weather +,2013-06-01 00:00:00,
2013-05-31 17:15:00,57.5,48.3,28.40,WNW,302,3.4,27.7,58,0.00,,,-99.99,HOBO +U30 +Weather +,2013-06-01 00:15:00,
2013-05-31 17:30:00,57.7,47.7,28.40,WNW,289,4.5,26.2,58,0.00,,,-99.99,HOBO +U30 +Weather +,2013-06-01 00:30:00,
2013-05-31 17:45:00,57.9,47.0,28.40,NW,309,3.8,11.2,60,0.00,,,-99.99,HOBO +U30 +Weather +,2013-06-01 00:45:00,
2013-05-31 18:00:00,58.1,47.5,28.40,WNW,296,3.8,26.2,61,0.00,,,-99.99,HOBO +U30 +Weather +,2013-06-01 01:00:00,
2013-05-31 18:15:00,58.2,47.6,28.39,WNW,288,4.5,27.7,60,0.00,,,-99.99,HOBO +U30 +Weather +,2013-06-01 01:15:00,
2013-05-31 18:30:00,58.3,47.3,28.39,WNW,289,3.8,28.2,60,0.00,,,-99.99,HOBO +U30 +Weather +,2013-06-01 01:30:00,
2013-05-31 18:45:00,58.4,47.3,28.39,West,281,3.8,21.5,61,0.00,,,-99.99,HOBO +U30 +Weather +,2013-06-01 01:45:00,
2013-05-31 19:00:00,58.5,48.1,28.38,WNW,285,2.9,24.8,60,0.00,,,-99.99,HOBO +U30 +Weather +,2013-06-01 02:00:00,
2013-05-31 19:15:00,58.5,47.7,28.38,WNW,291,2.0,7.8,63,0.00,,,-99.99,HOBO +U30 +Weather +,2013-06-01 02:15:00,
2013-05-31 19:30:00,58.5,48.0,28.38,NW,305,2.0,6.3,64,0.00,,,-99.99,HOBO +U30 +Weather +,2013-06-01 02:30:00,
2013-05-31 19:45:00,58.5,47.0,28.38,WNW,296,2.0,27.7,67,0.00,,,-99.99,HOBO +U30 +Weather +,2013-06-01 02:45:00,
2013-05-31 20:00:00,58.5,47.0,28.38,NW,312,1.3,28.2,71,0.00,,,-99.99,HOBO +U30 +Weather +,2013-06-01 03:00:00,
2013-05-31 20:15:00,58.6,47.7,28.38,WNW,284,1.3,26.2,77,0.00,,,-99.99,HOBO +U30 +Weather +,2013-06-01 03:15:00,
2013-05-31 20:30:00,58.5,47.4,28.38,NNW,327,0.9,24.4,83,0.00,,,-99.99,HOBO +U30 +Weather +,2013-06-01 03:30:00,
2013-05-31 20:45:00,58.5,47.0,28.39,North,8,0.9,27.7,87,0.00,,,-99.99,HOBO +U30 +Weather +,2013-06-01 03:45:00,
2013-05-31 21:00:00,58.5,46.4,28.38,NNE,21,1.6,2.5,89,0.00,,,-99.99,HOBO +U30 +Weather +,2013-06-01 04:00:00,
2013-05-31 21:15:00,58.5,45.8,28.38,NE,39,0.9,2.5,90,0.00,,,-99.99,HOBO +U30 +Weather +,2013-06-01 04:15:00,
2013-05-31 21:30:00,58.5,45.4,28.38,NE,39,0.0,1.3,91,0.00,,,-99.99,HOBO +U30 +Weather +,2013-06-01 04:30:00,
2013-05-31 21:45:00,58.4,44.7,28.39,NE,39,0.0,1.3,92,0.00,,,-99.99,HOBO +U30 +Weather +,2013-06-01 04:45:00,
2013-05-31 22:00:00,58.3,44.5,28.40,NE,39,0.4,1.6,92,0.00,,,-99.99,HOBO +U30 +Weather +,2013-06-01 05:00:00,
2013-05-31 22:15:00,58.3,44.1,28.39,NE,39,0.0,0.9,94,0.00,,,-99.99,HOBO +U30 +Weather +,2013-06-01 05:15:00,
2013-05-31 22:30:00,58.2,43.9,28.39,NE,39,0.4,23.3,94,0.00,,,-99.99,HOBO +U30 +Weather +,2013-06-01 05:30:00,
2013-05-31 22:45:00,58.1,43.6,28.39,NE,39,0.0,28.2,94,0.00,,,-99.99,HOBO +U30 +Weather +,2013-06-01 05:45:00,
2013-05-31 23:00:00,58.0,43.4,28.38,NE,39,0.0,1.3,95,0.00,,,-99.99,HOBO +U30 +Weather +,2013-06-01 06:00:00,
2013-05-31 23:15:00,57.9,43.2,28.38,NE,39,0.4,1.3,95,0.00,,,-99.99,HOBO +U30 +Weather +,2013-06-01 06:15:00,
2013-05-31 23:30:00,57.8,43.3,28.38,NE,39,0.0,25.3,95,0.00,,,-99.99,HOBO +U30 +Weather +,2013-06-01 06:30:00,
2013-05-31 23:45:00,57.6,42.8,28.38,NE,39,0.0,25.3,95,0.00,,,-99.99,HOBO +U30 +Weather +,2013-06-01 06:45:00,